Météo par heure à Graz

Ce jour, 1 Octobre, Jeudi

Heure Température Précipitation Vent Pression Humidité
00:00 +10°C° 0 mm 2 m/s 720 mmHg 83%
01:00 +9°C° 0 mm 2 m/s 720 mmHg 83%
02:00 +9°C° 0 mm 2 m/s 719 mmHg 84%
03:00 +9°C° 0 mm 2 m/s 719 mmHg 84%
04:00 +9°C° 0 mm 2 m/s 718 mmHg 84%
05:00 +10°C° 0 mm 1 m/s 718 mmHg 83%
06:00 +10°C° 0 mm 1 m/s 718 mmHg 81%
07:00 +11°C° 0 mm 1 m/s 718 mmHg 80%
08:00 +13°C° 0 mm 1 m/s 718 mmHg 71%
09:00 +16°C° 0 mm 1 m/s 718 mmHg 61%
10:00 +18°C° 0 mm 0 m/s 717 mmHg 52%
11:00 +21°C° 0 mm 1 m/s 717 mmHg 50%
12:00 +22°C° 0 mm 1 m/s 717 mmHg 48%
13:00 +22°C° 0 mm 1 m/s 717 mmHg 46%
14:00 +22°C° 0 mm 1 m/s 716 mmHg 50%
15:00 +21°C° 0 mm 1 m/s 716 mmHg 55%
16:00 +21°C° 0 mm 1 m/s 716 mmHg 60%
17:00 +19°C° 0 mm 1 m/s 716 mmHg 68%
18:00 +16°C° 0 mm 1 m/s 716 mmHg 76%
19:00 +14°C° 0 mm 1 m/s 716 mmHg 85%
20:00 +13°C° 0 mm 1 m/s 716 mmHg 85%
21:00 +13°C° 0 mm 1 m/s 716 mmHg 86%
22:00 +13°C° 0 mm 1 m/s 716 mmHg 86%
23:00 +13°C° 0 mm 1 m/s 716 mmHg 87%

Demain, 2 Octobre, Vendredi

Heure Température Précipitation Vent Pression Humidité
00:00 +12°C° 0 mm 1 m/s 716 mmHg 88%
01:00 +12°C° 0 mm 1 m/s 716 mmHg 89%
02:00 +12°C° 0 mm 1 m/s 716 mmHg 90%
03:00 +11°C° 0 mm 1 m/s 715 mmHg 90%
04:00 +10°C° 0 mm 0 m/s 715 mmHg 91%
05:00 +10°C° 0 mm 0 m/s 715 mmHg 90%
06:00 +11°C° 0 mm 0 m/s 715 mmHg 88%
07:00 +11°C° 0 mm 0 m/s 715 mmHg 87%
08:00 +12°C° 0 mm 0 m/s 715 mmHg 84%
09:00 +15°C° 0 mm 1 m/s 715 mmHg 81%
10:00 +16°C° 0 mm 1 m/s 715 mmHg 79%
11:00 +16°C° 0 mm 1 m/s 714 mmHg 77%
12:00 +17°C° 0 mm 2 m/s 714 mmHg 76%
13:00 +17°C° 0 mm 2 m/s 714 mmHg 75%
14:00 +18°C° 0 mm 2 m/s 714 mmHg 75%
15:00 +18°C° 0 mm 2 m/s 714 mmHg 74%
16:00 +18°C° 0 mm 2 m/s 713 mmHg 74%
17:00 +17°C° 0 mm 2 m/s 714 mmHg 78%
18:00 +16°C° 0 mm 2 m/s 714 mmHg 83%
19:00 +15°C° 0 mm 2 m/s 714 mmHg 87%
20:00 +15°C° 0 mm 2 m/s 713 mmHg 87%
21:00 +15°C° 0 mm 2 m/s 713 mmHg 88%
22:00 +14°C° 0 mm 1 m/s 713 mmHg 88%
23:00 +14°C° 0 mm 1 m/s 713 mmHg 89%

Après-demain, 3 Octobre, Samedi

Heure Température Précipitation Vent Pression Humidité
00:00 +14°C° 0 mm 1 m/s 713 mmHg 89%
01:00 +14°C° 0 mm 1 m/s 712 mmHg 90%
02:00 +14°C° 0 mm 1 m/s 714 mmHg 92%
03:00 +14°C° 0 mm 1 m/s 713 mmHg 91%
04:00 +14°C° 0 mm 2 m/s 713 mmHg 90%
05:00 +14°C° 0 mm 1 m/s 713 mmHg 89%
06:00 +15°C° 0 mm 1 m/s 713 mmHg 87%
07:00 +15°C° 0 mm 1 m/s 713 mmHg 86%
08:00 +17°C° 0 mm 2 m/s 713 mmHg 79%
09:00 +19°C° 0 mm 2 m/s 713 mmHg 73%
10:00 +21°C° 0 mm 3 m/s 713 mmHg 66%
11:00 +21°C° 0 mm 4 m/s 713 mmHg 64%
12:00 +22°C° 0 mm 4 m/s 713 mmHg 63%
13:00 +23°C° 0 mm 5 m/s 712 mmHg 61%
14:00 +22°C° 0.5 mm 4 m/s 712 mmHg 66%
15:00 +21°C° 0.5 mm 4 m/s 712 mmHg 72%
16:00 +21°C° 0.5 mm 3 m/s 711 mmHg 77%
17:00 +20°C° 3.9 mm 3 m/s 711 mmHg 83%
18:00 +18°C° 3.9 mm 2 m/s 711 mmHg 89%
19:00 +18°C° 3.9 mm 1 m/s 710 mmHg 95%
20:00 +17°C° 2.6 mm 2 m/s 711 mmHg 95%
21:00 +17°C° 2.6 mm 2 m/s 711 mmHg 95%
22:00 +17°C° 2.6 mm 2 m/s 711 mmHg 95%
23:00 +16°C° 0.3 mm 2 m/s 712 mmHg 94%

4 Octobre, Dimanche

Heure Température Précipitation Vent Pression Humidité
00:00 +15°C° 0.3 mm 2 m/s 712 mmHg 92%
01:00 +14°C° 0.3 mm 2 m/s 712 mmHg 91%
02:00 +13°C° 0 mm 2 m/s 712 mmHg 92%
03:00 +12°C° 0 mm 2 m/s 713 mmHg 92%
04:00 +10°C° 0 mm 2 m/s 713 mmHg 93%
05:00 +11°C° 0 mm 1 m/s 713 mmHg 93%
06:00 +11°C° 0 mm 1 m/s 714 mmHg 93%
07:00 +11°C° 0 mm 1 m/s 714 mmHg 92%
08:00 +12°C° 0 mm 1 m/s 714 mmHg 86%
09:00 +14°C° 0 mm 1 m/s 715 mmHg 80%
10:00 +16°C° 0 mm 2 m/s 715 mmHg 74%
11:00 +17°C° 0 mm 2 m/s 715 mmHg 69%
12:00 +18°C° 0 mm 2 m/s 715 mmHg 64%
13:00 +19°C° 0 mm 3 m/s 716 mmHg 59%
14:00 +19°C° 0 mm 3 m/s 715 mmHg 59%
15:00 +18°C° 0 mm 3 m/s 715 mmHg 59%
16:00 +18°C° 0 mm 3 m/s 715 mmHg 59%
17:00 +16°C° 0 mm 2 m/s 715 mmHg 67%
18:00 +14°C° 0 mm 2 m/s 715 mmHg 75%
19:00 +12°C° 0 mm 1 m/s 715 mmHg 82%
20:00 +12°C° 0 mm 1 m/s 715 mmHg 84%
21:00 +12°C° 0 mm 1 m/s 715 mmHg 85%
22:00 +11°C° 0 mm 1 m/s 715 mmHg 87%
23:00 +11°C° 0 mm 1 m/s 714 mmHg 88%

5 Octobre, Lundi

Heure Température Précipitation Vent Pression Humidité
00:00 +11°C° 0 mm 1 m/s 714 mmHg 88%
01:00 +11°C° 0 mm 1 m/s 714 mmHg 89%
02:00 +10°C° 0 mm 1 m/s 713 mmHg 90%
03:00 +10°C° 0 mm 1 m/s 713 mmHg 91%
04:00 +9°C° 0 mm 0 m/s 712 mmHg 92%
05:00 +9°C° 0.4 mm 0 m/s 713 mmHg 92%
06:00 +10°C° 0.4 mm 0 m/s 713 mmHg 92%
07:00 +10°C° 0.4 mm 0 m/s 713 mmHg 91%
08:00 +12°C° 0.3 mm 1 m/s 713 mmHg 89%
09:00 +13°C° 0.3 mm 1 m/s 713 mmHg 87%
10:00 +14°C° 0.3 mm 1 m/s 713 mmHg 85%
11:00 +15°C° 0.2 mm 1 m/s 713 mmHg 83%
12:00 +15°C° 0.2 mm 1 m/s 714 mmHg 81%
13:00 +16°C° 0.2 mm 2 m/s 714 mmHg 78%
14:00 +16°C° 0.5 mm 2 m/s 714 mmHg 79%
15:00 +16°C° 0.5 mm 2 m/s 714 mmHg 79%
16:00 +16°C° 0.5 mm 2 m/s 714 mmHg 79%
17:00 +14°C° 0.1 mm 2 m/s 714 mmHg 83%
18:00 +13°C° 0.1 mm 1 m/s 714 mmHg 86%
19:00 +11°C° 0.1 mm 1 m/s 714 mmHg 90%
20:00 +11°C° 0 mm 1 m/s 714 mmHg 91%
21:00 +10°C° 0 mm 1 m/s 715 mmHg 92%
22:00 +10°C° 0 mm 1 m/s 715 mmHg 92%
23:00 +10°C° 0 mm 1 m/s 715 mmHg 93%

6 Octobre, Mardi

Heure Température Précipitation Vent Pression Humidité
00:00 +9°C° 0 mm 1 m/s 715 mmHg 93%
01:00 +9°C° 0 mm 1 m/s 715 mmHg 93%
02:00 +9°C° 0 mm 1 m/s 715 mmHg 93%
03:00 +9°C° 0 mm 1 m/s 715 mmHg 93%
04:00 +8°C° 0 mm 0 m/s 714 mmHg 93%
05:00 +8°C° 0 mm 0 m/s 715 mmHg 93%
06:00 +8°C° 0 mm 0 m/s 715 mmHg 92%
07:00 +9°C° 0 mm 0 m/s 715 mmHg 92%
08:00 +10°C° 0.1 mm 0 m/s 715 mmHg 88%
09:00 +12°C° 0.1 mm 1 m/s 715 mmHg 84%
10:00 +14°C° 0.1 mm 1 m/s 715 mmHg 81%
11:00 +14°C° 0.2 mm 1 m/s 715 mmHg 78%
12:00 +15°C° 0.2 mm 1 m/s 715 mmHg 75%
13:00 +16°C° 0.2 mm 1 m/s 715 mmHg 72%
14:00 +16°C° 0.2 mm 1 m/s 714 mmHg 73%
15:00 +16°C° 0.2 mm 1 m/s 714 mmHg 74%
16:00 +15°C° 0.2 mm 1 m/s 714 mmHg 75%
17:00 +14°C° 0 mm 1 m/s 714 mmHg 80%
18:00 +12°C° 0 mm 1 m/s 714 mmHg 85%
19:00 +11°C° 0 mm 1 m/s 714 mmHg 89%
20:00 +11°C° 0 mm 1 m/s 714 mmHg 90%
21:00 +11°C° 0 mm 1 m/s 715 mmHg 90%
22:00 +10°C° 0 mm 1 m/s 715 mmHg 91%
23:00 +10°C° 0 mm 1 m/s 715 mmHg 91%
Voir plus